QPS-SAR-5 TSUKUYOMI-I

导读

QPS-SAR-5又名月读一号(TSUKUYOMI-I),是日本于2023年12月15日发射的合成孔径雷达卫星。它由日本QPS研究所开发,属于其商业SAR卫星星座的组成部分,具备全天时全天候对地观测能力,可用于灾害监测、地理测绘、资源勘探等多个领域,为日本提供高频次的雷达遥感数据服务。

Basic Information
目录编号:
58578
目录名称:
QPS-SAR-5 TSUKUYOMI-I
国际标识:
2023-196A
轨道中心:
EARTH
卫星名称:
QPS-SAR-5 TSUKUYOMI-I
卫星全名:
--
卫星状态:
在轨 (已飞行994 天)
发射日期:
2023-12-15 UTC
国别 :
日本 (JP)
星等 :
--
Orbit Information
数据来源 国际轨道数据
星历时间: 2026-09-04T05:51:36+0800
6小时前
查看轨道信息
半长轴: 6871.389km
偏心率: 0.0025769
轨道倾角: 42.009°
近地点辐角 93.303°
升交点赤经 287.000°
平近点角 267.075°
近地点: 475.545km
远地点: 510.959km
周期: 94.477分钟
每日圈数: 15.241791
Detailed Information
使用方式:
暂无
2D Orbit Map
3D Orbit Map
Orbit Altitude Analysis Chart
Orbit Inclination Analysis Chart
Orbit Comprehensive Analysis Chart
View Comprehensive Chart
Conjunction Data List
Event ID Objects TCA Miss Dist (km) Collision Risk Probability Collision Risk Index (CRI) Action
CDM_260903-044305-764205-857824
2026-09-03T
04:43:29+0000
1.828 km
极远距离
2.646592E-6 低风险 0.43
CDM_260905-035605-857805-916121
2026-09-05T
03:56:26+0000
1.870 km
极远距离
2.361635E-6 低风险 0.42
CDM_260904-213505-857805-867521
2026-09-04T
21:35:46+0000
2.391 km
极远距离
1.44577E-6 低风险 0.38